Weather in Sozimskiy

Russia / Kirov Oblast     59°44′57″N   52°15′07″E
temp.,
°C
wind,
m/s
gust,
m/s
humid.,
%
clouds,
%
prec.,
mm/h
press.,
hPa
HPBL,
m
29 january, sat
sat2900:00−14s31096100 0.0 1018253
03:00−13s31096100 0.1 1018240
06:00−12s289799 0.0 1017208
09:00−10sse3996100 0.1 1017256
12:00−6s399299 0.1 1016483
15:00−7sse3794100 0.2 1015271
18:00−8se389678 0.1 1014292
21:00−12se289788 0.1 1013150
30 january, sun
sun3000:00−14se2698100 0.0 1012121
03:00−14sse2597100 0.0 1011106
06:00−16se2598100 0.0 101069
09:00−13se2695100 0.0 1010155
12:00−9se359199 0.0 1009286
15:00−9se3695100 0.1 1009270
18:00−12se279774 0.1 1010166
21:00−15se259979 0.1 101077
31 january, mon
mon3100:00−17se1110081 0.0 101132
03:00−17se2410084 0.1 101260
06:00−17se2310085 0.0 101255
09:00−14se259880 0.1 1013104
12:00−9se249292 0.0 1012214
15:00−9ese249772 0.1 101367
18:00−12ese299876 0.0 1013151
21:00−13ese289879 0.0 1013138
1 february, tue
tue100:00−13ese399893 0.0 1013181
03:00−10ese41395100 0.1 1011353
06:00−6se51295100 1.2 1009580
09:00−6se51395100 1.9 1008568
12:00−3se51394100 0.6 1007658
15:00−1sse51295100 1.3 1005979
18:00−2sse51394100 0.6 1005871
21:00−1sse61295100 1.1 1004963
2 february, wed
wed200:00−2sse51296100 0.7 1004913
03:00−2s51196100 1.5 1004804
06:00−3s41196100 0.6 1005733
09:00−4ssw41094100 1.2 1007835
12:00−4ssw599099 0.2 1010878
15:00−5ssw489098 0.3 1012802
18:00−8s41192100 0.1 1014520
21:00−9s41193100 0.1 1015456